TimeWET,TemperatureF,Dew PointF,Humidity,Sea Level PressureIn,VisibilityMPH,Wind Direction,Wind SpeedMPH,Gust SpeedMPH,PrecipitationIn,Events,Conditions,WindDirDegrees,DateUTC
12:00 AM,52,50,89,30.05,4,East,4.6,,,,Scattered Clouds,100,2012-11-14 00:00:00
12:00 AM,51.8,50.0,94,30.04,4.3,East,4.6,-,N/A,,Partly Cloudy,100,2012-11-14 00:00:00
12:30 AM,51.8,50.0,94,30.01,3.7,ESE,3.5,-,N/A,,Partly Cloudy,110,2012-11-14 00:30:00
1:00 AM,51.8,50.0,94,30.01,3.1,East,3.5,-,N/A,,Partly Cloudy,80,2012-11-14 01:00:00
1:30 AM,51.8,50.0,94,30.01,3.1,East,5.8,-,N/A,,Partly Cloudy,90,2012-11-14 01:30:00
2:00 AM,51.8,50.0,94,30.01,5.0,ENE,4.6,-,N/A,,Partly Cloudy,70,2012-11-14 02:00:00
2:30 AM,51.8,50.0,94,29.98,5.0,ENE,8.1,-,N/A,,Partly Cloudy,60,2012-11-14 02:30:00
3:00 AM,51,50,95,30.00,5,ENE,9.2,,,,Scattered Clouds,70,2012-11-14 03:00:00
3:00 AM,51.8,50.0,94,29.98,5.0,ENE,9.2,-,N/A,,Partly Cloudy,70,2012-11-14 03:00:00
3:30 AM,50.0,48.2,94,29.98,3.7,East,4.6,-,N/A,,Partly Cloudy,80,2012-11-14 03:30:00
4:00 AM,48.2,46.4,93,29.98,3.7,East,5.8,-,N/A,,Partly Cloudy,100,2012-11-14 04:00:00
4:30 AM,48.2,46.4,93,29.98,3.1,Calm,Calm,-,N/A,,Partly Cloudy,0,2012-11-14 04:30:00
5:00 AM,48.2,46.4,93,29.98,6.2,NNE,2.3,-,N/A,,Partly Cloudy,20,2012-11-14 05:00:00
5:30 AM,48.2,46.4,93,29.98,-9999.0,ENE,4.6,-,N/A,,Partly Cloudy,60,2012-11-14 05:30:00
6:00 AM,46,45,93,29.99,3,ESE,4.6,,,,Scattered Clouds,120,2012-11-14 06:00:00
6:00 AM,46.4,44.6,93,29.98,3.1,ESE,4.6,-,N/A,,Partly Cloudy,120,2012-11-14 06:00:00
6:30 AM,46.4,44.6,93,29.98,-9999.0,ESE,3.5,-,N/A,,Partly Cloudy,110,2012-11-14 06:30:00
7:00 AM,44.6,44.6,100,29.98,-9999.0,ESE,4.6,-,N/A,,Partly Cloudy,120,2012-11-14 07:00:00
7:30 AM,46.4,44.6,93,29.98,6.2,South,2.3,-,N/A,,Partly Cloudy,190,2012-11-14 07:30:00
8:00 AM,48.2,46.4,93,29.98,6.2,South,3.5,-,N/A,,Partly Cloudy,190,2012-11-14 08:00:00
8:30 AM,50.0,50.0,100,29.98,3.1,SE,2.3,-,N/A,,Partly Cloudy,140,2012-11-14 08:30:00
9:00 AM,53,51,90,30.01,4,SE,2.3,,,,Scattered Clouds,130,2012-11-14 09:00:00
9:00 AM,51.8,51.8,100,30.01,3.7,SE,2.3,-,N/A,,Partly Cloudy,130,2012-11-14 09:00:00
9:30 AM,55.4,53.6,94,30.01,5.0,Variable,2.3,-,N/A,,Partly Cloudy,0,2012-11-14 09:30:00
10:00 AM,57.2,53.6,88,30.01,-9999.0,Calm,Calm,-,N/A,,Clear,0,2012-11-14 10:00:00
10:30 AM,60.8,51.8,72,29.98,-9999.0,East,5.8,-,N/A,,Clear,90,2012-11-14 10:30:00
11:00 AM,62.6,50.0,63,29.98,-9999.0,East,6.9,-,N/A,,Clear,80,2012-11-14 11:00:00
11:30 AM,64.4,51.8,64,29.98,-9999.0,East,6.9,-,N/A,,Clear,80,2012-11-14 11:30:00
11:46 AM,66,51,49,29.96,6,East,5.8,,,,Clear,100,2012-11-14 11:46:00
12:00 PM,66.2,51.8,60,29.98,-9999.0,East,5.8,-,N/A,,Clear,100,2012-11-14 12:00:00
12:30 PM,68.0,50.0,52,29.95,-9999.0,SSE,4.6,-,N/A,,Clear,160,2012-11-14 12:30:00
1:00 PM,69.8,48.2,46,29.92,-9999.0,SE,2.3,-,N/A,,Clear,140,2012-11-14 13:00:00
1:30 PM,69.8,48.2,46,29.92,-9999.0,SE,3.5,-,N/A,,Clear,130,2012-11-14 13:30:00
2:00 PM,69.8,46.4,43,29.92,-9999.0,East,4.6,-,N/A,,Clear,80,2012-11-14 14:00:00
2:30 PM,71.6,46.4,41,29.89,-9999.0,East,3.5,-,N/A,,Clear,90,2012-11-14 14:30:00
3:00 PM,72,47,29,29.89,6,ENE,3.5,,,,Clear,60,2012-11-14 15:00:00
3:00 PM,71.6,46.4,41,29.89,-9999.0,ENE,3.5,-,N/A,,Clear,60,2012-11-14 15:00:00
3:30 PM,71.6,51.8,50,29.92,-9999.0,North,5.8,-,N/A,,Clear,10,2012-11-14 15:30:00
4:00 PM,68.0,51.8,56,29.92,-9999.0,NNE,10.4,-,N/A,,Clear,20,2012-11-14 16:00:00
4:30 PM,66.2,51.8,60,29.92,-9999.0,NNE,9.2,-,N/A,,Clear,20,2012-11-14 16:30:00
5:00 PM,64.4,51.8,64,29.92,-9999.0,North,6.9,-,N/A,,Clear,10,2012-11-14 17:00:00
5:30 PM,64.4,51.8,64,29.92,-9999.0,NNE,8.1,-,N/A,,Clear,20,2012-11-14 17:30:00
6:00 PM,63,53,62,29.92,6,NNE,6.9,,,,Clear,30,2012-11-14 18:00:00
6:00 PM,62.6,53.6,72,29.92,-9999.0,NNE,6.9,-,N/A,,Clear,30,2012-11-14 18:00:00
6:30 PM,60.8,53.6,77,29.92,-9999.0,NE,8.1,-,N/A,,Clear,40,2012-11-14 18:30:00
7:00 PM,60.8,53.6,77,29.92,-9999.0,NE,6.9,-,N/A,,Clear,50,2012-11-14 19:00:00
7:30 PM,59.0,53.6,82,29.92,-9999.0,ENE,6.9,-,N/A,,Clear,60,2012-11-14 19:30:00
8:00 PM,57.2,51.8,82,29.92,5.6,ENE,5.8,-,N/A,,Unknown,70,2012-11-14 20:00:00
8:30 PM,57.2,53.6,88,29.95,5.0,East,4.6,-,N/A,,Unknown,90,2012-11-14 20:30:00
9:00 PM,55,52,87,29.94,4,East,6.9,,,,Scattered Clouds,80,2012-11-14 21:00:00
9:00 PM,55.4,51.8,88,29.92,3.7,East,6.9,-,N/A,,Scattered Clouds,80,2012-11-14 21:00:00
9:30 PM,55.4,51.8,88,29.92,3.7,SE,4.6,-,N/A,,Scattered Clouds,130,2012-11-14 21:30:00
10:00 PM,55.4,51.8,88,29.92,3.7,East,3.5,-,N/A,,Scattered Clouds,100,2012-11-14 22:00:00
10:30 PM,53.6,51.8,94,29.92,4.3,SE,6.9,-,N/A,,Scattered Clouds,130,2012-11-14 22:30:00
11:00 PM,53.6,51.8,94,29.92,4.3,ESE,5.8,-,N/A,,Scattered Clouds,120,2012-11-14 23:00:00
11:30 PM,53.6,51.8,94,29.92,5.0,ESE,5.8,-,N/A,,Scattered Clouds,110,2012-11-14 23:30:00
11:47 PM,53,51,91,29.94,5,ESE,5.8,,,,Scattered Clouds,120,2012-11-14 23:47:00